Year,Month,Day,Hour,Minute,Value (Times are PST for temperature in C)
2016,02,08,00,00,8.10
2016,02,08,00,01,8.10
2016,02,08,00,02,8.10
2016,02,08,00,03,8.00
2016,02,08,00,04,8.00
2016,02,08,00,05,8.00
2016,02,08,00,06,8.00
2016,02,08,00,07,8.00
2016,02,08,00,08,8.00
2016,02,08,00,09,8.00
2016,02,08,00,10,8.00
2016,02,08,00,11,8.00
2016,02,08,00,12,8.00
2016,02,08,00,13,8.00
2016,02,08,00,14,8.00
2016,02,08,00,15,8.00
2016,02,08,00,16,8.00
2016,02,08,00,17,8.00
2016,02,08,00,18,8.00
2016,02,08,00,19,8.00
2016,02,08,00,20,8.00
2016,02,08,00,21,8.00
2016,02,08,00,22,8.00
2016,02,08,00,23,8.00
2016,02,08,00,24,8.00
2016,02,08,00,25,8.00
2016,02,08,00,26,8.00
2016,02,08,00,27,8.00
2016,02,08,00,28,8.00
2016,02,08,00,29,8.00
2016,02,08,00,30,8.00
2016,02,08,00,31,8.00
2016,02,08,00,32,8.00
2016,02,08,00,33,8.00
2016,02,08,00,34,8.00
2016,02,08,00,35,8.00
2016,02,08,00,36,8.00
2016,02,08,00,37,8.00
2016,02,08,00,38,8.00
2016,02,08,00,39,8.00
2016,02,08,00,40,8.00
2016,02,08,00,41,8.00
2016,02,08,00,42,8.10
2016,02,08,00,43,8.10
2016,02,08,00,44,8.10
2016,02,08,00,45,8.10
2016,02,08,00,46,8.10
2016,02,08,00,47,8.10
2016,02,08,00,48,8.10
2016,02,08,00,49,8.10
2016,02,08,00,50,8.10
2016,02,08,00,51,8.10
2016,02,08,00,52,8.10
2016,02,08,00,53,8.10
2016,02,08,00,54,8.10
2016,02,08,00,55,8.10
2016,02,08,00,56,8.10
2016,02,08,00,57,8.10
2016,02,08,00,58,8.10
2016,02,08,00,59,8.10
2016,02,08,01,00,8.10
2016,02,08,01,01,8.10
2016,02,08,01,02,8.10
2016,02,08,01,03,8.10
2016,02,08,01,04,8.10
2016,02,08,01,05,8.10
2016,02,08,01,06,8.10
2016,02,08,01,07,8.10
2016,02,08,01,08,8.10
2016,02,08,01,09,8.10
2016,02,08,01,10,8.10
2016,02,08,01,11,8.10
2016,02,08,01,12,8.10
2016,02,08,01,13,8.10
2016,02,08,01,14,8.10
2016,02,08,01,15,8.10
2016,02,08,01,16,8.10
2016,02,08,01,17,8.10
2016,02,08,01,18,8.10
2016,02,08,01,19,8.10
2016,02,08,01,20,8.10
2016,02,08,01,21,8.10
2016,02,08,01,22,8.10
2016,02,08,01,23,8.10
2016,02,08,01,24,8.10
2016,02,08,01,25,8.10
2016,02,08,01,26,8.10
2016,02,08,01,27,8.10
2016,02,08,01,28,8.10
2016,02,08,01,29,8.10
2016,02,08,01,30,8.10
2016,02,08,01,31,8.10
2016,02,08,01,32,8.10
2016,02,08,01,33,8.10
2016,02,08,01,34,8.10
2016,02,08,01,35,8.00
2016,02,08,01,36,8.00
2016,02,08,01,37,8.00
2016,02,08,01,38,8.00
2016,02,08,01,39,8.00
2016,02,08,01,40,8.00
2016,02,08,01,41,8.00
2016,02,08,01,42,8.00
2016,02,08,01,43,8.00
2016,02,08,01,44,8.00
2016,02,08,01,45,8.00
2016,02,08,01,46,8.00
2016,02,08,01,47,8.00
2016,02,08,01,48,8.00
2016,02,08,01,49,8.00
2016,02,08,01,50,8.00
2016,02,08,01,51,8.00
2016,02,08,01,52,8.00
2016,02,08,01,53,8.00
2016,02,08,01,54,8.00
2016,02,08,01,55,7.90
2016,02,08,01,56,7.90
2016,02,08,01,57,8.00
2016,02,08,01,58,8.00
2016,02,08,01,59,7.90
2016,02,08,02,00,7.90
2016,02,08,02,01,7.90
2016,02,08,02,02,7.90
2016,02,08,02,03,7.90
2016,02,08,02,04,7.90
2016,02,08,02,05,7.90
2016,02,08,02,06,7.90
2016,02,08,02,07,7.90
2016,02,08,02,08,7.90
2016,02,08,02,09,7.90
2016,02,08,02,10,7.90
2016,02,08,02,11,7.90
2016,02,08,02,12,7.90
2016,02,08,02,13,7.90
2016,02,08,02,14,7.90
2016,02,08,02,15,7.90
2016,02,08,02,16,7.90
2016,02,08,02,17,7.90
2016,02,08,02,18,7.90
2016,02,08,02,19,7.90
2016,02,08,02,20,7.90
2016,02,08,02,21,7.90
2016,02,08,02,22,7.80
2016,02,08,02,23,7.80
2016,02,08,02,24,7.80
2016,02,08,02,25,7.80
2016,02,08,02,26,7.80
2016,02,08,02,27,7.80
2016,02,08,02,28,7.80
2016,02,08,02,29,7.80
2016,02,08,02,30,7.80
2016,02,08,02,31,7.80
2016,02,08,02,32,7.80
2016,02,08,02,33,7.80
2016,02,08,02,34,7.80
2016,02,08,02,35,7.70
2016,02,08,02,36,7.70
2016,02,08,02,37,7.70
2016,02,08,02,38,7.70
2016,02,08,02,39,7.70
2016,02,08,02,40,7.70
2016,02,08,02,41,7.70
2016,02,08,02,42,7.70
2016,02,08,02,43,7.70
2016,02,08,02,44,7.70
2016,02,08,02,45,7.70
2016,02,08,02,46,7.70
2016,02,08,02,47,7.70
2016,02,08,02,48,7.70
2016,02,08,02,49,7.60
2016,02,08,02,50,7.60
2016,02,08,02,51,7.60
2016,02,08,02,52,7.60
2016,02,08,02,53,7.60
2016,02,08,02,54,7.60
2016,02,08,02,55,7.60
2016,02,08,02,56,7.60
2016,02,08,02,57,7.60
2016,02,08,02,58,7.60
2016,02,08,02,59,7.60
2016,02,08,03,00,7.50
2016,02,08,03,01,7.50
2016,02,08,03,02,7.50
2016,02,08,03,03,7.50
2016,02,08,03,04,7.50
2016,02,08,03,05,7.40
2016,02,08,03,06,7.40
2016,02,08,03,07,7.40
2016,02,08,03,08,7.40
2016,02,08,03,09,7.40
2016,02,08,03,10,7.40
2016,02,08,03,11,7.30
2016,02,08,03,12,7.30
2016,02,08,03,13,7.30
2016,02,08,03,14,7.30
2016,02,08,03,15,7.30
2016,02,08,03,16,7.30
2016,02,08,03,17,7.30
2016,02,08,03,18,7.30
2016,02,08,03,19,7.30
2016,02,08,03,20,7.20
2016,02,08,03,21,7.20
2016,02,08,03,22,7.20
2016,02,08,03,23,7.20
2016,02,08,03,24,7.20
2016,02,08,03,25,7.10
2016,02,08,03,26,7.10
2016,02,08,03,27,7.10
2016,02,08,03,28,7.00
2016,02,08,03,29,7.00
2016,02,08,03,30,7.00
2016,02,08,03,31,7.00
2016,02,08,03,32,7.00
2016,02,08,03,33,6.90
2016,02,08,03,34,6.90
2016,02,08,03,35,6.90
2016,02,08,03,36,6.90
2016,02,08,03,37,6.90
2016,02,08,03,38,6.90
2016,02,08,03,39,6.90
2016,02,08,03,40,6.90
2016,02,08,03,41,6.90
2016,02,08,03,42,6.90
2016,02,08,03,43,6.90
2016,02,08,03,44,6.90
2016,02,08,03,45,6.90
2016,02,08,03,46,6.90
2016,02,08,03,47,6.90
2016,02,08,03,48,6.90
2016,02,08,03,49,6.90
2016,02,08,03,50,6.90
2016,02,08,03,51,6.90
2016,02,08,03,52,6.90
2016,02,08,03,53,6.90
2016,02,08,03,54,6.90
2016,02,08,03,55,6.90
2016,02,08,03,56,6.90
2016,02,08,03,57,6.80
2016,02,08,03,58,6.80
2016,02,08,03,59,6.80
2016,02,08,04,00,6.80
2016,02,08,04,01,6.70
2016,02,08,04,02,6.70
2016,02,08,04,03,6.70
2016,02,08,04,04,6.70
2016,02,08,04,05,6.70
2016,02,08,04,06,6.60
2016,02,08,04,07,6.60
2016,02,08,04,08,6.60
2016,02,08,04,09,6.50
2016,02,08,04,10,6.50
2016,02,08,04,11,6.50
2016,02,08,04,12,6.50
2016,02,08,04,13,6.40
2016,02,08,04,14,6.40
2016,02,08,04,15,6.40
2016,02,08,04,16,6.40
2016,02,08,04,17,6.40
2016,02,08,04,18,6.30
2016,02,08,04,19,6.30
2016,02,08,04,20,6.30
2016,02,08,04,21,6.30
2016,02,08,04,22,6.30
2016,02,08,04,23,6.30
2016,02,08,04,24,6.20
2016,02,08,04,25,6.20
2016,02,08,04,26,6.20
2016,02,08,04,27,6.20
2016,02,08,04,28,6.20
2016,02,08,04,29,6.10
2016,02,08,04,30,6.10
2016,02,08,04,31,6.10
2016,02,08,04,32,6.10
2016,02,08,04,33,6.10
2016,02,08,04,34,6.10
2016,02,08,04,35,6.00
2016,02,08,04,36,6.00
2016,02,08,04,37,5.90
2016,02,08,04,38,5.90
2016,02,08,04,39,5.90
2016,02,08,04,40,5.90
2016,02,08,04,41,5.90
2016,02,08,04,42,5.90
2016,02,08,04,43,5.90
2016,02,08,04,44,5.80
2016,02,08,04,45,5.80
2016,02,08,04,46,5.80
2016,02,08,04,47,5.80
2016,02,08,04,48,5.80
2016,02,08,04,49,5.80
2016,02,08,04,50,5.70
2016,02,08,04,51,5.70
2016,02,08,04,52,5.70
2016,02,08,04,53,5.70
2016,02,08,04,54,5.70
2016,02,08,04,55,5.70
2016,02,08,04,56,5.70
2016,02,08,04,57,5.70
2016,02,08,04,58,5.70
2016,02,08,04,59,5.70
2016,02,08,05,00,5.70
2016,02,08,05,01,5.70
2016,02,08,05,02,5.70
2016,02,08,05,03,5.70
2016,02,08,05,04,5.60
2016,02,08,05,05,5.60
2016,02,08,05,06,5.50
2016,02,08,05,07,5.50
2016,02,08,05,08,5.50
2016,02,08,05,09,5.40
2016,02,08,05,10,5.40
2016,02,08,05,11,5.40
2016,02,08,05,12,5.40
2016,02,08,05,13,5.40
2016,02,08,05,14,5.40
2016,02,08,05,15,5.40
2016,02,08,05,16,5.30
2016,02,08,05,17,5.30
2016,02,08,05,18,5.30
2016,02,08,05,19,5.30
2016,02,08,05,20,5.30
2016,02,08,05,21,5.30
2016,02,08,05,22,5.30
2016,02,08,05,23,5.30
2016,02,08,05,24,5.20
2016,02,08,05,25,5.20
2016,02,08,05,26,5.20
2016,02,08,05,27,5.20
2016,02,08,05,28,5.20
2016,02,08,05,29,5.20
2016,02,08,05,30,5.20
2016,02,08,05,31,5.20
2016,02,08,05,32,5.20
2016,02,08,05,33,5.10
2016,02,08,05,34,5.10
2016,02,08,05,35,5.10
2016,02,08,05,36,5.10
2016,02,08,05,37,5.10
2016,02,08,05,38,5.20
2016,02,08,05,39,5.20
2016,02,08,05,40,5.20
2016,02,08,05,41,5.20
2016,02,08,05,42,5.20
2016,02,08,05,43,5.20
2016,02,08,05,44,5.20
2016,02,08,05,45,5.30
2016,02,08,05,46,5.30
2016,02,08,05,47,5.30
2016,02,08,05,48,5.30
2016,02,08,05,49,5.30
2016,02,08,05,50,5.30
2016,02,08,05,51,5.30
2016,02,08,05,52,5.30
2016,02,08,05,53,5.30
2016,02,08,05,54,5.30
2016,02,08,05,55,5.30
2016,02,08,05,56,5.20
2016,02,08,05,57,5.20
2016,02,08,05,58,5.20
2016,02,08,05,59,5.30
2016,02,08,06,00,5.30
2016,02,08,06,01,5.30
2016,02,08,06,02,5.40
2016,02,08,06,03,5.40
2016,02,08,06,04,5.40
2016,02,08,06,05,5.40
2016,02,08,06,06,5.50
2016,02,08,06,07,5.50
2016,02,08,06,08,5.50
2016,02,08,06,09,5.50
2016,02,08,06,10,5.50
2016,02,08,06,11,5.50
2016,02,08,06,12,5.50
2016,02,08,06,13,5.40
2016,02,08,06,14,5.40
2016,02,08,06,15,5.40
2016,02,08,06,16,5.40
2016,02,08,06,17,5.40
2016,02,08,06,18,5.40
2016,02,08,06,19,5.40
2016,02,08,06,20,5.40
2016,02,08,06,21,5.40
2016,02,08,06,22,5.40
2016,02,08,06,23,5.40
2016,02,08,06,24,5.40
2016,02,08,06,25,5.40
2016,02,08,06,26,5.40
2016,02,08,06,27,5.30
2016,02,08,06,28,5.30
2016,02,08,06,29,5.30
2016,02,08,06,30,5.30
2016,02,08,06,31,5.30
2016,02,08,06,32,5.30
2016,02,08,06,33,5.30
2016,02,08,06,34,5.20
2016,02,08,06,35,5.20
2016,02,08,06,36,5.20
2016,02,08,06,37,5.20
2016,02,08,06,38,5.20
2016,02,08,06,39,5.20
2016,02,08,06,40,5.20
2016,02,08,06,41,5.20
2016,02,08,06,42,5.20
2016,02,08,06,43,5.20
2016,02,08,06,44,5.20
2016,02,08,06,45,5.20
2016,02,08,06,46,5.20
2016,02,08,06,47,5.20
2016,02,08,06,48,5.20
2016,02,08,06,49,5.20
2016,02,08,06,50,5.20
2016,02,08,06,51,5.20
2016,02,08,06,52,5.20
2016,02,08,06,53,5.10
2016,02,08,06,54,5.10
2016,02,08,06,55,5.10
2016,02,08,06,56,5.10
2016,02,08,06,57,5.10
2016,02,08,06,58,5.00
2016,02,08,06,59,4.90
2016,02,08,07,00,4.90
2016,02,08,07,01,4.90
2016,02,08,07,02,4.90
2016,02,08,07,03,4.90
2016,02,08,07,04,4.90
2016,02,08,07,05,4.90
2016,02,08,07,06,4.90
2016,02,08,07,07,5.00
2016,02,08,07,08,5.00
2016,02,08,07,09,5.10
2016,02,08,07,10,5.10
2016,02,08,07,11,5.10
2016,02,08,07,12,5.10
2016,02,08,07,13,5.10
2016,02,08,07,14,5.20
2016,02,08,07,15,5.20
2016,02,08,07,16,5.20
2016,02,08,07,17,5.20
2016,02,08,07,18,5.20
2016,02,08,07,19,5.30
2016,02,08,07,20,5.30
2016,02,08,07,21,5.30
2016,02,08,07,22,5.30
2016,02,08,07,23,5.30
2016,02,08,07,24,5.30
2016,02,08,07,25,5.40
2016,02,08,07,26,5.40
2016,02,08,07,27,5.50
2016,02,08,07,28,5.50
2016,02,08,07,29,5.60
2016,02,08,07,30,5.60
2016,02,08,07,31,5.60
2016,02,08,07,32,5.60
2016,02,08,07,33,5.60
2016,02,08,07,34,5.70
2016,02,08,07,35,5.70
2016,02,08,07,36,5.70
2016,02,08,07,37,5.70
2016,02,08,07,38,5.70
2016,02,08,07,39,5.70
2016,02,08,07,40,5.70
2016,02,08,07,41,5.70
2016,02,08,07,42,5.70
2016,02,08,07,43,5.70
2016,02,08,07,44,5.70
2016,02,08,07,45,5.70
2016,02,08,07,46,5.80
2016,02,08,07,47,5.80
2016,02,08,07,48,5.80
2016,02,08,07,49,5.80
2016,02,08,07,50,5.80
2016,02,08,07,51,5.80
2016,02,08,07,52,5.80
2016,02,08,07,53,5.80
2016,02,08,07,54,5.90
2016,02,08,07,55,5.90
2016,02,08,07,56,5.90
2016,02,08,07,57,5.90
2016,02,08,07,58,5.90
2016,02,08,07,59,5.90
2016,02,08,08,00,5.90
2016,02,08,08,01,5.90
2016,02,08,08,02,5.90
2016,02,08,08,03,5.90
2016,02,08,08,04,5.90
2016,02,08,08,05,5.90
2016,02,08,08,06,5.90
2016,02,08,08,07,5.90
2016,02,08,08,08,5.90
2016,02,08,08,09,5.90
2016,02,08,08,10,5.90
2016,02,08,08,11,5.90
2016,02,08,08,12,5.90
2016,02,08,08,13,5.90
2016,02,08,08,14,5.90
2016,02,08,08,15,6.00
2016,02,08,08,16,6.00
2016,02,08,08,17,6.00
2016,02,08,08,18,6.00
2016,02,08,08,19,6.10
2016,02,08,08,20,6.10
2016,02,08,08,21,6.10
2016,02,08,08,22,6.10
2016,02,08,08,23,6.10
2016,02,08,08,24,6.10
2016,02,08,08,25,6.10
2016,02,08,08,26,6.20
2016,02,08,08,27,6.20
2016,02,08,08,28,6.20
2016,02,08,08,29,6.30
2016,02,08,08,30,6.30
2016,02,08,08,31,6.30
2016,02,08,08,32,6.40
2016,02,08,08,33,6.40
2016,02,08,08,34,6.40
2016,02,08,08,35,6.40
2016,02,08,08,36,6.50
2016,02,08,08,37,6.50
2016,02,08,08,38,6.60
2016,02,08,08,39,6.60
2016,02,08,08,40,6.70
2016,02,08,08,41,6.70
2016,02,08,08,42,6.80
2016,02,08,08,43,6.90
2016,02,08,08,44,6.90
2016,02,08,08,45,7.00
2016,02,08,08,46,7.00
2016,02,08,08,47,7.10
2016,02,08,08,48,7.10
2016,02,08,08,49,7.20
2016,02,08,08,50,7.20
2016,02,08,08,51,7.30
2016,02,08,08,52,7.30
2016,02,08,08,53,7.30
2016,02,08,08,54,7.40
2016,02,08,08,55,7.50
2016,02,08,08,56,7.50
2016,02,08,08,57,7.50
2016,02,08,08,58,7.60
2016,02,08,08,59,7.60
2016,02,08,09,00,7.60
2016,02,08,09,01,7.60
2016,02,08,09,02,7.70
2016,02,08,09,03,7.70
2016,02,08,09,04,7.80
2016,02,08,09,05,7.80
2016,02,08,09,06,7.90
2016,02,08,09,07,7.90
2016,02,08,09,08,8.00
2016,02,08,09,09,8.00
2016,02,08,09,10,8.10
2016,02,08,09,11,8.10
2016,02,08,09,12,8.10
2016,02,08,09,13,8.10
2016,02,08,09,14,8.10
2016,02,08,09,15,8.10
2016,02,08,09,16,8.10
2016,02,08,09,17,8.20
2016,02,08,09,18,8.20
2016,02,08,09,19,8.20
2016,02,08,09,20,8.20
2016,02,08,09,21,8.20
2016,02,08,09,22,8.20
2016,02,08,09,23,8.20
2016,02,08,09,24,8.20
2016,02,08,09,25,8.30
2016,02,08,09,26,8.30
2016,02,08,09,27,8.30
2016,02,08,09,28,8.30
2016,02,08,09,29,8.30
2016,02,08,09,30,8.30
2016,02,08,09,31,8.40
2016,02,08,09,32,8.40
2016,02,08,09,33,8.50
2016,02,08,09,34,8.50
2016,02,08,09,35,8.60
2016,02,08,09,36,8.60
2016,02,08,09,37,8.60
2016,02,08,09,38,8.60
2016,02,08,09,39,8.70
2016,02,08,09,40,8.70
2016,02,08,09,41,8.70
2016,02,08,09,42,8.70
2016,02,08,09,43,8.70
2016,02,08,09,44,8.70
2016,02,08,09,45,8.70
2016,02,08,09,46,8.70
2016,02,08,09,47,8.70
2016,02,08,09,48,8.70
2016,02,08,09,49,8.80
2016,02,08,09,50,8.80
2016,02,08,09,51,8.80
2016,02,08,09,52,8.80
2016,02,08,09,53,8.90
2016,02,08,09,54,8.90
2016,02,08,09,55,9.00
2016,02,08,09,56,9.10
2016,02,08,09,57,9.10
2016,02,08,09,58,9.10
2016,02,08,09,59,9.20
2016,02,08,10,00,9.20
2016,02,08,10,01,9.20
2016,02,08,10,02,9.20
2016,02,08,10,03,9.30
2016,02,08,10,04,9.30
2016,02,08,10,05,9.40
2016,02,08,10,06,9.40
2016,02,08,10,07,9.60
2016,02,08,10,08,9.60
2016,02,08,10,09,9.60
2016,02,08,10,10,9.70
2016,02,08,10,11,9.70
2016,02,08,10,12,9.80
2016,02,08,10,13,9.80
2016,02,08,10,14,9.80
2016,02,08,10,15,9.80
2016,02,08,10,16,9.80
2016,02,08,10,17,9.80
2016,02,08,10,18,9.70
2016,02,08,10,19,9.70
2016,02,08,10,20,9.70
2016,02,08,10,21,9.70
2016,02,08,10,22,9.70
2016,02,08,10,23,9.70
2016,02,08,10,24,9.70
2016,02,08,10,25,9.70
2016,02,08,10,26,9.70
2016,02,08,10,27,9.70
2016,02,08,10,28,9.70
2016,02,08,10,29,9.70
2016,02,08,10,30,9.70
2016,02,08,10,31,9.80
2016,02,08,10,32,9.80
2016,02,08,10,33,9.90
2016,02,08,10,34,9.90
2016,02,08,10,35,9.90
2016,02,08,10,36,10.00
2016,02,08,10,37,10.10
2016,02,08,10,38,10.20
2016,02,08,10,39,10.20
2016,02,08,10,40,10.20
2016,02,08,10,41,10.20
2016,02,08,10,42,10.20
2016,02,08,10,43,10.20
2016,02,08,10,44,10.20
2016,02,08,10,45,10.20
2016,02,08,10,46,10.10
2016,02,08,10,47,10.10
2016,02,08,10,48,10.00
2016,02,08,10,49,10.00
2016,02,08,10,50,9.90
2016,02,08,10,51,9.90
2016,02,08,10,52,9.80
2016,02,08,10,53,9.80
2016,02,08,10,54,9.80
2016,02,08,10,55,9.80
2016,02,08,10,56,9.80
2016,02,08,10,57,9.80
2016,02,08,10,58,9.80
2016,02,08,10,59,9.90
2016,02,08,11,00,9.90
2016,02,08,11,01,10.00
2016,02,08,11,02,10.00
2016,02,08,11,03,10.00
2016,02,08,11,04,10.00
2016,02,08,11,05,10.00
2016,02,08,11,06,10.10
2016,02,08,11,07,10.10
2016,02,08,11,08,10.10
2016,02,08,11,09,10.10
2016,02,08,11,10,10.10
2016,02,08,11,11,10.20
2016,02,08,11,12,10.20
2016,02,08,11,13,10.20
2016,02,08,11,14,10.20
2016,02,08,11,15,10.20
2016,02,08,11,16,10.20
2016,02,08,11,17,10.20
2016,02,08,11,18,10.20
2016,02,08,11,19,10.20
2016,02,08,11,20,10.20
2016,02,08,11,21,10.30
2016,02,08,11,22,10.30
2016,02,08,11,23,10.30
2016,02,08,11,24,10.30
2016,02,08,11,25,10.30
2016,02,08,11,26,10.40
2016,02,08,11,27,10.40
2016,02,08,11,28,10.40
2016,02,08,11,29,10.50
2016,02,08,11,30,10.40
2016,02,08,11,31,10.40
2016,02,08,11,32,10.40
2016,02,08,11,33,10.50
2016,02,08,11,34,10.60
2016,02,08,11,35,10.70
2016,02,08,11,36,10.80
2016,02,08,11,37,10.80
2016,02,08,11,38,10.80
2016,02,08,11,39,10.80
2016,02,08,11,40,10.80
2016,02,08,11,41,10.80
2016,02,08,11,42,10.90
2016,02,08,11,43,10.90
2016,02,08,11,44,10.90
2016,02,08,11,45,11.00
2016,02,08,11,46,11.00
2016,02,08,11,47,11.00
2016,02,08,11,48,11.00
2016,02,08,11,49,11.00
2016,02,08,11,50,11.10
2016,02,08,11,51,11.10
2016,02,08,11,52,11.10
2016,02,08,11,53,11.20
2016,02,08,11,54,11.20
2016,02,08,11,55,11.20
2016,02,08,11,56,11.20
2016,02,08,11,57,11.20
2016,02,08,11,58,11.20
2016,02,08,11,59,11.20
2016,02,08,12,00,11.20
2016,02,08,12,01,11.10
2016,02,08,12,02,11.10
2016,02,08,12,03,11.00
2016,02,08,12,04,11.00
2016,02,08,12,05,11.00
2016,02,08,12,06,11.10
2016,02,08,12,07,11.10
2016,02,08,12,08,11.10
2016,02,08,12,09,11.00
2016,02,08,12,10,11.00
2016,02,08,12,11,11.00
2016,02,08,12,12,11.00
2016,02,08,12,13,11.00
2016,02,08,12,14,11.00
2016,02,08,12,15,11.00
2016,02,08,12,16,11.00
2016,02,08,12,17,11.00
2016,02,08,12,18,11.00
2016,02,08,12,19,11.00
2016,02,08,12,20,11.00
2016,02,08,12,21,11.00
2016,02,08,12,22,11.10
2016,02,08,12,23,11.00
2016,02,08,12,24,11.00
2016,02,08,12,25,11.10
2016,02,08,12,26,11.10
2016,02,08,12,27,11.10
2016,02,08,12,28,11.10
2016,02,08,12,29,11.20
2016,02,08,12,30,11.20
2016,02,08,12,31,11.20
2016,02,08,12,32,11.20
2016,02,08,12,33,11.20
2016,02,08,12,34,11.20
2016,02,08,12,35,11.20
2016,02,08,12,36,11.20
2016,02,08,12,37,11.20
2016,02,08,12,38,11.20
2016,02,08,15,46,12.10
2016,02,08,15,47,12.10
2016,02,08,15,48,12.10
2016,02,08,15,49,12.10
2016,02,08,15,50,12.00
2016,02,08,15,51,12.00
2016,02,08,15,52,12.00
2016,02,08,15,53,12.00
2016,02,08,15,54,12.00
2016,02,08,15,55,12.00
2016,02,08,15,56,12.00
2016,02,08,15,57,12.00
2016,02,08,15,58,12.00
2016,02,08,15,59,11.90
2016,02,08,16,00,11.90
2016,02,08,16,01,11.90
2016,02,08,16,02,11.90
2016,02,08,16,03,11.90
2016,02,08,16,04,11.90
2016,02,08,16,05,11.80
2016,02,08,16,06,11.80
2016,02,08,16,07,11.80
2016,02,08,16,08,11.70
2016,02,08,16,09,11.70
2016,02,08,16,10,11.70
2016,02,08,16,11,11.70
2016,02,08,16,12,11.70
2016,02,08,16,13,11.70
2016,02,08,16,14,11.60
2016,02,08,16,15,11.60
2016,02,08,16,16,11.50
2016,02,08,16,17,11.50
2016,02,08,16,18,11.50
2016,02,08,16,19,11.40
2016,02,08,16,20,11.40
2016,02,08,16,21,11.40
2016,02,08,16,22,11.30
2016,02,08,16,23,11.30
2016,02,08,16,24,11.30
2016,02,08,16,25,11.30
2016,02,08,16,26,11.30
2016,02,08,16,27,11.20
2016,02,08,16,28,11.20
2016,02,08,16,29,11.20
2016,02,08,16,30,11.20
2016,02,08,16,31,11.20
2016,02,08,16,32,11.20
2016,02,08,16,33,11.20
2016,02,08,16,34,11.10
2016,02,08,16,35,11.10
2016,02,08,16,36,11.10
2016,02,08,16,37,11.10
2016,02,08,16,38,11.10
2016,02,08,16,39,11.00
2016,02,08,16,40,11.10
2016,02,08,16,41,11.10
2016,02,08,16,42,11.10
2016,02,08,16,43,11.00
2016,02,08,16,44,11.00
2016,02,08,16,45,11.00
2016,02,08,16,46,11.00
2016,02,08,16,47,11.00
2016,02,08,16,48,11.00
2016,02,08,16,49,11.00
2016,02,08,16,50,10.90
2016,02,08,16,51,10.90
2016,02,08,16,52,10.90
2016,02,08,16,53,10.90
2016,02,08,16,54,10.90
2016,02,08,16,55,10.80
2016,02,08,16,56,10.80
2016,02,08,16,57,10.80
2016,02,08,16,58,10.80
2016,02,08,16,59,10.80
2016,02,08,17,00,10.80
2016,02,08,17,01,10.80
2016,02,08,17,02,10.80
2016,02,08,17,03,10.80
2016,02,08,17,04,10.80
2016,02,08,17,05,10.80
2016,02,08,17,06,10.80
2016,02,08,17,07,10.70
2016,02,08,17,08,10.70
2016,02,08,17,09,10.70
2016,02,08,17,10,10.60
2016,02,08,17,11,10.60
2016,02,08,17,12,10.60
2016,02,08,17,13,10.60
2016,02,08,17,14,10.50
2016,02,08,17,15,10.50
2016,02,08,17,16,10.40
2016,02,08,17,17,10.40
2016,02,08,17,18,10.40
2016,02,08,17,19,10.30
2016,02,08,17,20,10.30
2016,02,08,17,21,10.30
2016,02,08,17,22,10.30
2016,02,08,17,23,10.20
2016,02,08,17,24,10.20
2016,02,08,17,25,10.10
2016,02,08,17,26,10.10
2016,02,08,17,27,10.10
2016,02,08,17,28,10.00
2016,02,08,17,29,10.00
2016,02,08,17,30,10.00
2016,02,08,17,31,9.90
2016,02,08,17,32,9.90
2016,02,08,17,33,9.90
2016,02,08,17,34,9.80
2016,02,08,17,35,9.80
2016,02,08,17,36,9.80
2016,02,08,17,37,9.80
2016,02,08,17,38,9.70
2016,02,08,17,39,9.70
2016,02,08,17,40,9.70
2016,02,08,17,41,9.70
2016,02,08,17,42,9.70
2016,02,08,17,43,9.60
2016,02,08,17,44,9.60
2016,02,08,17,45,9.60
2016,02,08,17,46,9.60
2016,02,08,17,47,9.50
2016,02,08,17,48,9.50
2016,02,08,17,49,9.50
2016,02,08,17,50,9.40
2016,02,08,17,51,9.40
2016,02,08,17,52,9.40
2016,02,08,17,53,9.40
2016,02,08,17,54,9.40
2016,02,08,17,55,9.30
2016,02,08,17,56,9.30
2016,02,08,17,57,9.30
2016,02,08,17,58,9.30
2016,02,08,17,59,9.30
2016,02,08,18,00,9.20
2016,02,08,18,01,9.20
2016,02,08,18,02,9.20
2016,02,08,18,03,9.20
2016,02,08,18,04,9.20
2016,02,08,18,05,9.20
2016,02,08,18,06,9.10
2016,02,08,18,07,9.10
2016,02,08,18,08,9.10
2016,02,08,18,09,9.10
2016,02,08,18,10,9.10
2016,02,08,18,11,9.10
2016,02,08,18,12,9.00
2016,02,08,18,13,9.00
2016,02,08,18,14,9.00
2016,02,08,18,15,8.90
2016,02,08,18,16,8.90
2016,02,08,18,17,8.90
2016,02,08,18,18,8.90
2016,02,08,18,19,8.90
2016,02,08,18,20,8.90
2016,02,08,18,21,8.90
2016,02,08,18,22,8.80
2016,02,08,18,23,8.80
2016,02,08,18,24,8.80
2016,02,08,18,25,8.80
2016,02,08,18,26,8.80
2016,02,08,18,27,8.80
2016,02,08,18,28,8.80
2016,02,08,18,29,8.70
2016,02,08,18,30,8.70
2016,02,08,18,31,8.70
2016,02,08,18,32,8.70
2016,02,08,18,33,8.70
2016,02,08,18,34,8.70
2016,02,08,18,35,8.70
2016,02,08,18,36,8.70
2016,02,08,18,37,8.70
2016,02,08,18,38,8.70
2016,02,08,18,39,8.70
2016,02,08,18,40,8.70
2016,02,08,18,41,8.60
2016,02,08,18,42,8.60
2016,02,08,18,43,8.60
2016,02,08,18,44,8.60
2016,02,08,18,45,8.60
2016,02,08,18,46,8.60
2016,02,08,18,47,8.60
2016,02,08,18,48,8.60
2016,02,08,18,49,8.60
2016,02,08,18,50,8.60
2016,02,08,18,51,8.60
2016,02,08,18,52,8.60
2016,02,08,18,53,8.50
2016,02,08,18,54,8.50
2016,02,08,18,55,8.50
2016,02,08,18,56,8.50
2016,02,08,18,57,8.40
2016,02,08,18,58,8.40
2016,02,08,18,59,8.40
2016,02,08,19,00,8.40
2016,02,08,19,01,8.40
2016,02,08,19,02,8.40
2016,02,08,19,03,8.40
2016,02,08,19,04,8.40
2016,02,08,19,05,8.40
2016,02,08,19,06,8.30
2016,02,08,19,07,8.30
2016,02,08,19,08,8.30
2016,02,08,19,09,8.30
2016,02,08,19,10,8.30
2016,02,08,19,11,8.30
2016,02,08,19,12,8.30
2016,02,08,19,13,8.30
2016,02,08,19,14,8.30
2016,02,08,19,15,8.30
2016,02,08,19,16,8.30
2016,02,08,19,17,8.30
2016,02,08,19,18,8.30
2016,02,08,19,19,8.30
2016,02,08,19,20,8.30
2016,02,08,19,21,8.30
2016,02,08,19,22,8.30
2016,02,08,19,23,8.30
2016,02,08,19,24,8.30
2016,02,08,19,25,8.30
2016,02,08,19,26,8.20
2016,02,08,19,27,8.20
2016,02,08,19,28,8.20
2016,02,08,19,29,8.20
2016,02,08,19,30,8.20
2016,02,08,19,31,8.20
2016,02,08,19,32,8.20
2016,02,08,19,33,8.20
2016,02,08,19,34,8.20
2016,02,08,19,35,8.20
2016,02,08,19,36,8.20
2016,02,08,19,37,8.20
2016,02,08,19,38,8.20
2016,02,08,19,39,8.20
2016,02,08,19,40,8.20
2016,02,08,19,41,8.20
2016,02,08,19,42,8.20
2016,02,08,19,43,8.10
2016,02,08,19,44,8.10
2016,02,08,19,45,8.10
2016,02,08,19,46,8.10
2016,02,08,19,47,8.10
2016,02,08,19,48,8.10
2016,02,08,19,49,8.10
2016,02,08,19,50,8.10
2016,02,08,19,51,8.10
2016,02,08,19,52,8.10
2016,02,08,19,53,8.10
2016,02,08,19,54,8.10
2016,02,08,19,55,8.10
2016,02,08,19,56,8.10
2016,02,08,19,57,8.10
2016,02,08,19,58,8.10
2016,02,08,19,59,8.10
2016,02,08,20,00,8.10
2016,02,08,20,01,8.10
2016,02,08,20,02,8.10
2016,02,08,20,03,8.10
2016,02,08,20,04,8.10
2016,02,08,20,05,8.10
2016,02,08,20,06,8.10
2016,02,08,20,07,8.10
2016,02,08,20,08,8.00
2016,02,08,20,09,8.00
2016,02,08,20,10,8.00
2016,02,08,20,11,8.00
2016,02,08,20,12,8.00
2016,02,08,20,13,7.90
2016,02,08,20,14,7.90
2016,02,08,20,15,7.90
2016,02,08,20,16,7.90
2016,02,08,20,17,7.90
2016,02,08,20,18,7.80
2016,02,08,20,19,7.80
2016,02,08,20,20,7.80
2016,02,08,20,21,7.80
2016,02,08,20,22,7.80
2016,02,08,20,23,7.80
2016,02,08,20,24,7.80
2016,02,08,20,25,7.70
2016,02,08,20,26,7.70
2016,02,08,20,27,7.70
2016,02,08,20,28,7.70
2016,02,08,20,29,7.70
2016,02,08,20,30,7.70
2016,02,08,20,31,7.70
2016,02,08,20,32,7.70
2016,02,08,20,33,7.70
2016,02,08,20,34,7.60
2016,02,08,20,35,7.60
2016,02,08,20,36,7.60
2016,02,08,20,37,7.60
2016,02,08,20,38,7.60
2016,02,08,20,39,7.60
2016,02,08,20,40,7.60
2016,02,08,20,41,7.60
2016,02,08,20,42,7.60
2016,02,08,20,43,7.60
2016,02,08,20,44,7.60
2016,02,08,20,45,7.60
2016,02,08,20,46,7.60
2016,02,08,20,47,7.60
2016,02,08,20,48,7.60
2016,02,08,20,49,7.60
2016,02,08,20,50,7.50
2016,02,08,20,51,7.50
2016,02,08,20,52,7.50
2016,02,08,20,53,7.50
2016,02,08,20,54,7.50
2016,02,08,20,55,7.50
2016,02,08,20,56,7.40
2016,02,08,20,57,7.40
2016,02,08,20,58,7.40
2016,02,08,20,59,7.40
2016,02,08,21,00,7.40
2016,02,08,21,01,7.40
2016,02,08,21,02,7.40
2016,02,08,21,03,7.40